Regional Weather Roundup
Issued by NWS

Home | Current Version | Previous Version | Text Only | Print | Product List | Glossary On
Versions: 1 2 3 4 5 6 7 8 9 10 11 12 13 14 15 16 17 18 19 20 21 22 23 24 25 26 27 28 29 30 31 32 33 34 35 36 37 38 39 40 41 42 43 44 45 46 47 48 49 50
000
ASUS43 KDTX 251901
RWRMI
MICHIGAN HOURLY REGIONAL WEATHER ROUNDUP
NATIONAL WEATHER SERVICE DETROIT/PONTIAC MI
300 PM EDT MON MAY 25 2015

NOTE: "FAIR" INDICATES FEW OR NO CLOUDS BELOW 12,000 FEET WITH NO
SIGNIFICANT WEATHER AND/OR OBSTRUCTION TO VISIBILITY.

MIZ047>049-052>055-059>063-066>070-074>076-081>083-252000-
SOUTHEAST LOWER MICHIGAN

CITY           SKY/WX    TMP DP  RH WIND       PRES   REMARKS
ADRIAN         PTSUNNY   78  63  59 SW23G30   29.99S
ALMA           CLOUDY    76  65  68 W21G26    29.88R
ANN ARBOR      PTSUNNY   79  67  66 SW21G30   29.95F
BAD AXE        PTSUNNY   81  63  55 S18G31    29.87F
CARO           CLOUDY    77  64  63 S14G26    29.88F
DETROIT CITY   CLOUDY    78  62  57 S20G26    29.95F
DETROIT        PTSUNNY   81  63  54 S28G35    29.97S
FLINT          CLOUDY    76  66  71 S14       29.92S
GROSSE ILE     CLOUDY    73  64  73 S16       29.96F
HILLSDALE      PTSUNNY   78  63  60 SW21G28   29.97F
HOWELL         PTSUNNY   76  66  72 S12G25    29.93F

CITY           SKY/WX    TMP DP  RH WIND       PRES   REMARKS
JACKSON        MOSUNNY   80  62  54 SW29G40   29.94F
LAMBERTVILLE   PTSUNNY   79  61  53 SW15G33   30.00S
LANSING        MOSUNNY   79  64  60 SW23G31   29.89F
LAPEER         LGT RAIN  69  67  92 SW13      29.94R
MASON          MOSUNNY   77  64  63 S12G20    29.92F
MONROE         CLOUDY    81  63  54 SW14G29   29.96F
MT. CLEMENS    PTSUNNY   81  64  56 S17G29    29.92F
PONTIAC        PTSUNNY   73  66  78 SW16G23   29.95F
PORT HOPE        N/A     80  63  55 S10       29.85F
PORT HURON     CLOUDY    77  63  61 S12G22    29.94F
TRI CITIES     PTSUNNY   74  64  71 S18G36    29.87F
MIDLAND        PTSUNNY   79  65  62 SW15G30   29.84F
TROY           PTSUNNY   76  63  63 SW13G21   29.97R
SAGINAW HB     LGT RAIN  68  68 100 S14       29.89R
$$
MIZ043>046-050>051-056>058-064>065-071>073-077>080-252000-
SOUTHWEST LOWER MICHIGAN

CITY           SKY/WX    TMP DP  RH WIND       PRES   REMARKS
BATTLE CREEK   CLOUDY    77  61  57 SW26G35   29.91F
BENTON HARBOR  PTSUNNY   73  63  70 SW22G31   29.92R
BIG RAPIDS     CLOUDY    70  65  84 SW14G24   29.85R
COLDWATER      PTSUNNY   78  61  54 SW20G30   29.94F
FREMONT        CLOUDY    69  65  85 SW14G28   29.86S
HOLLAND        PTSUNNY   74  62  66 SW26G41   29.90F
GRAND RAPIDS   PTSUNNY   73  65  75 SW17      29.89F
IONIA          CLOUDY    72  68  86 W18G25    29.88R
KALAMAZOO      PTSUNNY   73  66  78 SW14      29.92R
LUDINGTON      CLOUDY    71  64  79 S24       29.82S
MOUNT PLEASANT LGT RAIN  72  67  82 SW16      29.86R
MUSKEGON       PTSUNNY   70  59  68 SW18G24   29.87F
SOUTH HAVEN    PTSUNNY   72  61  69 SW14G26   29.91S
$$
MIZ016>042-252000-
NORTHERN LOWER MICHIGAN

CITY           SKY/WX    TMP DP  RH WIND       PRES   REMARKS
ALPENA         LGT RAIN  73  65  75 S10       29.83F
BEAVER ISLAND  CLOUDY    68  64  88 SW20G36   29.74F
BELLAIRE       LGT RAIN  72  64  77 SW6       29.77S
CADILLAC       CLOUDY    73  63  71 SW23G33   29.82R
CHARLEVOIX     LGT RAIN  69  66  91 SW15G21   29.79S
FRANKFORT      MOSUNNY   69  58  68 S20G29    29.78S
GAYLORD        PTSUNNY   74  63  68 SW14G28   29.79F
HARBOR SPRINGS RAIN      68  64  88 SW5       29.76S
HOUGHTON LAKE  PTSUNNY   75  64  68 S15G26    29.83F
MANISTEE       MOSUNNY   72  63  73 SW17      29.81S
OSCODA         LGT RAIN  69  66  89 S12G24    29.84F
PELLSTON       CLOUDY    70  67  90 S3        29.77F
ROGERS CITY    CLOUDY    62  60  93 E3        29.81F
TRAVERSE CITY  LGT RAIN  72  66  81 S10G18    29.76F
$$
MIZ007>008-015-252000-
EASTERN UPPER MICHIGAN

CITY           SKY/WX    TMP DP  RH WIND       PRES   REMARKS
KINROSS        CLOUDY    55  55 100 E13       29.78F
MACKINAC ISLAN CLOUDY    46  46 100 E9G18     29.77F FOG
NEWBERRY       DRIZZLE   57  56  99 SE5       29.74F
S. S. MARIE    CLOUDY    56  54  93 E9G21     29.78F
$$
MIZ004>006-011>014-085-252000-
CENTRAL UPPER MICHIGAN

CITY           SKY/WX    TMP DP  RH WIND       PRES   REMARKS
MANISTIQUE     DRZL/FOG  52  51  97 S8        29.72F VSB<1/4
ESCANABA       CLOUDY    55  52  88 SW6       29.68S
MENOMINEE      CLOUDY    70  63  78 W9G17     29.69S
SAWYER-GWINN   LGT RAIN  59  57  94 S7        29.67F
$$
MIZ001>003-009>011-084-252000-
WESTERN UPPER MICHIGAN

CITY           SKY/WX    TMP DP  RH WIND       PRES   REMARKS
IRON MOUNTAIN  PTSUNNY   65  60  84 SW8       29.67F
HOUGHTON       LGT RAIN  48  47  96 E10       29.67F VSB 1/2
COPPER HARBOR    N/A     51  48  89 SE9G18    29.69F
IRONWOOD       CLOUDY    61  59  94 W12       29.63S
$$

ABBREVIATIONS USED IN REMARKS
   TC - TEMPERATURE IN CELSIUS
  WCI - WIND CHILL INDEX
   HX - HEAT INDEX
  VSB - VISIBILITY




USA.gov is the U.S. government's official web portal to all federal, state and local government web resources and services.